FW5380 Weather Reports


Display with metric or nautical units.
time (UTC)temp
F
wind
direction
speed
MPH
gust
MPH
rain 1hr
in
rain 24hr
in
rain mn
in
humidity
%
barometer
mb
20260505090030 52 180 1.0 4.0 0.00 0.00 0.00 86 1013.4
20260505084533 52 180 2.0 4.0 0.00 0.00 0.00 85 1013.5
20260505083030 53 172 1.0 3.0 0.00 0.00 0.00 84 1013.5
20260505081532 54 214 1.0 4.0 0.00 0.00 0.00 84 1013.4
20260505080028 53 168 3.0 5.0 0.00 0.00 0.00 83 1013.5
20260505074531 54 180 1.0 4.0 0.00 0.00 0.00 82 1013.4
20260505073143 54 184 2.0 4.0 0.00 0.00 0.00 81 1013.2
20260505071532 54 180 3.0 5.0 0.00 0.00 0.00 80 1013.2
20260505070030 55 178 2.0 3.0 0.00 0.00 0.00 78 1013.1
20260505064532 55 227 0.0 3.0 0.00 0.00 0.00 77 1013.1
20260505063146 56 173 2.0 4.0 0.00 0.00 0.00 76 1013.1
20260505061608 57 180 1.0 4.0 0.00 0.00 0.00 73 1013.0
20260505060030 58 162 0.0 3.0 0.00 0.00 0.00 71 1013.0
20260505054603 58 169 3.0 5.0 0.00 0.00 0.00 70 1012.9
20260505053031 59 174 3.0 4.0 0.00 0.00 0.00 68 1012.8
20260505051535 60 180 2.0 4.0 0.00 0.00 0.00 64 1012.7
20260505041530 63 215 2.0 5.0 0.00 0.00 0.00 59 1012.2
20260505040043 64 207 2.0 5.0 0.00 0.00 0.00 58 1012.0
20260505033030 66 193 2.0 4.0 0.00 0.00 0.00 52 1011.6
20260505031529 69 262 0.0 5.0 0.00 0.00 0.00 47 1011.3
20260505024531 73 292 2.0 9.0 0.00 0.00 0.00 42 1010.9
20260505023031 74 296 6.0 15.0 0.00 0.00 0.00 40 1010.8
20260505021530 75 304 5.0 14.0 0.00 0.00 0.00 39 1010.8
20260505014531 77 308 7.0 20.0 0.00 0.00 0.00 36 1010.7
20260505013031 78 307 6.0 16.0 0.00 0.00 0.00 36 1010.6
20260505011608 79 304 7.0 14.0 0.00 0.00 0.00 36 1010.6
20260505010033 79 304 6.0 14.0 0.00 0.00 0.00 39 1010.6
20260505004646 79 325 6.0 12.0 0.00 0.00 0.00 43 1010.7
20260505003031 79 336 8.0 14.0 0.00 0.00 0.00 42 1010.6
20260505001529 80 336 7.0 15.0 0.00 0.00 0.00 41 1010.6
20260504234532 81 351 6.0 13.0 0.00 0.00 0.00 42 1010.6
20260504231531 81 347 6.0 12.0 0.00 0.00 0.00 41 1010.9
20260504230030 81 353 6.0 12.0 0.00 0.00 0.00 40 1011.0
20260504224532 81 342 7.0 14.0 0.00 0.00 0.00 38 1011.2
20260504221606 81 328 6.0 15.0 0.00 0.00 0.00 36 1011.5
20260504220032 82 321 4.0 13.0 0.00 0.00 0.00 35 1011.6
20260504214531 83 313 4.0 8.0 0.00 0.00 0.00 34 1011.8
20260504213031 82 322 4.0 9.0 0.00 0.00 0.00 35 1011.9
20260504211531 81 343 3.0 9.0 0.00 0.00 0.00 34 1012.0
20260504210026 81 2 3.0 10.0 0.00 0.00 0.00 33 1012.2
20260504204531 81 346 4.0 11.0 0.00 0.00 0.00 34 1012.3
20260504201529 79 330 5.0 10.0 0.00 0.00 0.00 36 1012.5
20260504200032 79 311 5.0 12.0 0.00 0.00 0.00 38 1012.6
20260504191531 79 327 7.0 14.0 0.00 0.00 0.00 40 1012.8
20260504190032 80 336 7.0 13.0 0.00 0.00 0.00 40 1012.8
20260504184605 79 332 6.0 11.0 0.00 0.00 0.00 43 1013.0
20260504183145 76 351 5.0 10.0 0.00 0.00 0.00 45 1013.0
20260504180031 77 345 3.0 9.0 0.00 0.00 0.00 47 1013.0
20260504174530 76 329 3.0 7.0 0.00 0.00 0.00 47 1013.0
20260504173114 75 332 2.0 7.0 0.00 0.00 0.00 47 1013.0
20260504171530 75 343 3.0 8.0 0.00 0.00 0.00 47 1012.9
20260504170108 76 335 1.0 7.0 0.00 0.00 0.00 47 1012.9
20260504160145 71 34 1.0 5.0 0.00 0.00 0.00 52 1013.3
20260504130107 49 215 1.0 4.0 0.00 0.00 0.00 76 1012.4
20260504120103 54 214 1.0 5.0 0.00 0.00 0.00 71 1012.6